Location: Newark
(51.2625°N, 13.3939°E)
Time: 20:37:54
(UTC+00:00)

Courier 1B - All Passes

Search period start: 22 November 2019 00:00
Search period end: 02 December 2019 00:00
Orbit: 963 x 1209 km, 28.3° (Epoch: 21 November)

Date Brightness Start Highest point End Pass type
(mag) Time Alt. Az. Time Alt. Az. Time Alt. Az.
29 Nov - 03:02:12 10° SSW 03:03:39 11° S 03:05:06 10° S visible
30 Nov - 02:08:28 10° SSW 02:10:12 11° S 02:11:55 10° SSE visible
01 Dec - 01:15:17 10° S 01:16:44 11° S 01:18:11 10° SSE visible
01 Dec - 03:09:04 10° S 03:09:15 10° S 03:09:27 10° S visible
